Hourly Data Report for September 10, 2017

All times are specified in Local Standard Time (LST). Add 1 hour to adjust for Daylight Saving Time where and when it is observed.

GRAND MANAN SAR CS
NEW BRUNSWICK

44°42'43.400" N
66°48'06.900" W
78.20 m
8101925
71030
XGM

Download Data

Hourly Data (September 2017)
Hourly Data Report for September 10, 2017
Temp Definition
°C
Dew Point Temp Definition
°C
Rel Hum Definition
%
Wind Dir Definition
10's deg

Wind Spd Definition
km/h
Visibility Definition
km
Stn Press Definition
kPa
Hmdx Definition


Wind Chill Definition


Weather Definition


TIME
00:00 13.8 12.5 92 2 12   101.37     LegendNANA
01:00 13.4 12.4 94 3 13   101.37     LegendNANA
02:00 13.1 12.2 95 3 15   101.35     LegendNANA
03:00 12.4 11.5 94 3 14   101.37     LegendNANA
04:00 12.0 11.3 95 3 16   101.41     LegendNANA
05:00 11.9 10.9 93 2 15   101.46     LegendNANA
06:00 12.3 10.9 92 2 12   101.51     LegendNANA
07:00 12.7 10.7 88 36 13   101.54     LegendNANA
08:00 13.0 10.8 87 35 14   101.54     LegendNANA
09:00 13.6 10.6 82 35 18   101.58     LegendNANA
10:00 15.1 10.8 75 2 15   101.59     LegendNANA
11:00 17.2 11.0 67 2 17   101.55     LegendNANA
12:00 17.2 10.5 65 36 14   101.51     LegendNANA
13:00 18.0 10.5 62 36 15   101.44     LegendNANA
14:00 19.8 11.1 57 1 15   101.38     LegendNANA
15:00 19.7 9.4 51 33 10   101.32     LegendNANA
16:00 18.5 9.9 57 32 11   101.29     LegendNANA
17:00 15.7 11.0 74 35 6   101.33     LegendNANA
18:00 15.3 10.9 75 34 5   101.32     LegendNANA
19:00 14.6 10.1 75 35 6   101.35     LegendNANA
20:00 14.5 8.3 66 34 10   101.38     LegendNANA
21:00 14.0 8.2 68 34 7   101.36     LegendNANA
22:00 13.4 8.2 71 33 8   101.32     LegendNANA
23:00 13.1 8.6 74 33 10   101.31     LegendNANA

Notes on Data Quality.

Legend

  • E = Estimated
  • M = Missing
  • NA = Not Available
  • ‡ = Partner data that is not subject to review by the National Climate Archives
Date modified: